{"data":{"norad_id":65496,"intl_designator":"2025-198E","name":"STARLINK-35212","alt_names":[],"object_type":"PAYLOAD","status":"ACTIVE","operator":null,"country":"US","launch_date":"2025-09-05","launch_site_code":"AFETR","launch_vehicle":null,"mission":null,"orbit_class":"UNKNOWN","rcs_meters":null,"size_class":null,"mass_kg":null,"dimensions":null,"purposes":["comms"],"wikipedia_slug":null,"has_3d_model":false,"image_url":null,"decayed_at":null,"tle_current":{"epoch":"2026-09-20T21:19:38.991936Z","epoch_age_seconds":78440,"freshness":"FRESH","line1":"1 65496U 25198E   26263.88864574  .00025249  00000+0  75616-3 0  9993","line2":"2 65496  53.1612  81.6386 0001813  79.7151 280.4056 15.34388956 58544","mean_motion":15.34388956,"eccentricity":0.0001813,"inclination_deg":53.1612,"raan_deg":81.6386,"arg_perigee_deg":79.7151,"mean_anomaly_deg":280.4056,"bstar":0.00075616,"rev_number":5854,"period_min":93.848433564977,"perigee_km":461.49581521263,"apogee_km":463.97631578618,"semimajor_km":6840.8730654994,"source":"CELESTRAK","updated_at":"2026-09-21T09:00:35.641731Z"}}}